EW8956 Weather Reports


Display with metric or nautical units.
time (UTC)temp
F
wind
direction
speed
MPH
gust
MPH
rain 1hr
in
rain 24hr
in
rain mn
in
humidity
%
barometer
mb
20260507171553 63 0 0.0 2.0 0.00 0.30 0.24 89 1010.3
20260507170053 64 0 0.0 4.0 0.00 0.30 0.24 88 1010.3
20260507164550 64 0 0.0 8.0 0.00 0.30 0.24 87 1010.0
20260507163057 66 324 1.0 2.0 0.00 0.30 0.24 87 1009.5
20260507161557 68 147 0.0 1.0 0.00 0.30 0.24 92 1009.5
20260507160053 65 0 0.0 1.0 0.00 0.30 0.24 94 1009.9
20260507154551 64 0 0.0 1.0 0.01 0.30 0.24 94 1010.3
20260507153058 64 0 0.0 3.0 0.01 0.30 0.24 94 1010.8
20260507151548 64 0 0.0 1.0 0.02 0.30 0.24 94 1010.7
20260507150048 64 0 0.0 1.0 0.02 0.30 0.24 94 1011.1
20260507144550 64 0 0.0 2.0 0.02 0.29 0.23 94 1010.3
20260507143059 64 0 0.0 1.0 0.03 0.29 0.23 94 1010.4
20260507141550 64 0 0.0 3.0 0.04 0.28 0.22 94 1010.4
20260507140044 63 0 0.0 2.0 0.07 0.28 0.22 94 1010.6
20260507134549 63 0 0.0 2.0 0.11 0.27 0.21 94 1009.8
20260507133050 63 147 0.0 2.0 0.11 0.26 0.20 94 1009.8
20260507131550 63 0 0.0 2.0 0.10 0.24 0.18 94 1010.4
20260507124555 63 0 0.0 1.0 0.03 0.16 0.10 94 1011.6
20260507123042 63 0 0.0 2.0 0.02 0.15 0.09 94 1011.5
20260507121553 63 0 0.0 1.0 0.02 0.14 0.08 94 1011.1
20260507120051 63 0 0.0 1.0 0.01 0.13 0.07 94 1011.2
20260507114546 63 147 0.0 1.0 0.02 0.13 0.07 94 1011.1
20260507113046 63 0 0.0 1.0 0.02 0.13 0.07 94 1010.8
20260507111542 63 0 0.0 0.0 0.01 0.12 0.06 94 1010.5
20260507110049 63 147 0.0 2.0 0.01 0.12 0.06 94 1010.4
20260507104551 63 0 0.0 3.0 0.00 0.11 0.05 94 1010.7
20260507103117 63 0 0.0 1.0 0.00 0.11 0.05 94 1010.6
20260507101547 63 146 0.0 2.0 0.00 0.11 0.05 94 1010.5
20260507100058 63 0 0.0 1.0 0.01 0.11 0.05 94 1010.7
20260507094550 63 0 0.0 1.0 0.01 0.11 0.05 94 1010.7
20260507093055 63 0 0.0 0.0 0.01 0.11 0.05 94 1010.8
20260507091546 63 0 0.0 2.0 0.01 0.11 0.05 94 1010.6
20260507090056 63 0 0.0 2.0 0.00 0.10 0.04 94 1010.7
20260507084553 63 0 0.0 5.0 0.00 0.10 0.04 94 1010.0
20260507083054 63 0 0.0 2.0 0.00 0.10 0.04 94 1010.4
20260507081549 63 0 0.0 1.0 0.01 0.10 0.04 93 1010.6
20260507080053 63 203 0.0 4.0 0.01 0.10 0.04 93 1010.8
20260507074557 63 169 1.0 5.0 0.01 0.10 0.04 93 1010.9
20260507073050 63 213 0.0 4.0 0.01 0.10 0.04 93 1011.5
20260507071550 63 0 0.0 2.0 0.00 0.09 0.03 93 1011.5
20260507064553 63 0 0.0 2.0 0.00 0.09 0.03 93 1011.4
20260507063048 63 0 0.0 2.0 0.01 0.09 0.03 93 1011.5
20260507061552 63 0 0.0 2.0 0.02 0.09 0.03 93 1011.8
20260507060049 63 0 1.0 5.0 0.03 0.09 0.03 92 1012.8
20260507054607 63 232 0.0 2.0 0.03 0.09 0.03 92 1012.9
20260507053059 63 232 1.0 5.0 0.02 0.08 0.02 92 1012.7
20260507051555 63 230 0.0 3.0 0.01 0.07 0.01 92 1013.4
20260507050055 63 178 0.0 2.0 0.00 0.06 0.00 92 1012.9
20260507044556 63 175 0.0 1.0 0.00 0.06 0.00 91 1012.9
20260507043049 64 0 0.0 2.0 0.01 0.06 0.00 91 1012.9
20260507041602 64 0 0.0 1.0 0.02 0.06 0.00 90 1012.6
20260507040052 64 257 1.0 9.0 0.04 0.06 0.00 89 1012.3
20260507034553 64 151 1.0 5.0 0.04 0.06 0.06 89 1012.4
20260507033053 65 0 2.0 7.0 0.04 0.05 0.05 89 1013.2
20260507031547 66 234 1.0 14.0 0.03 0.04 0.04 87 1014.2
20260507030053 66 33 1.0 5.0 0.01 0.02 0.02 87 1013.8
20260507024554 67 221 1.0 8.0 0.02 0.02 0.02 86 1013.5
20260507023052 67 230 0.0 10.0 0.01 0.01 0.01 86 1013.4
20260507021618 68 0 1.0 7.0 0.01 0.01 0.01 86 1013.1
20260507020107 68 0 0.0 4.0 0.01 0.01 0.01 86 1012.8
20260507014611 68 0 0.0 5.0 0.00 0.00 0.00 85 1012.1
20260507013047 68 0 0.0 4.0 0.00 0.00 0.00 83 1012.2
20260507011556 69 0 0.0 3.0 0.00 0.00 0.00 83 1012.4
20260507010050 69 0 0.0 5.0 0.00 0.00 0.00 81 1012.7
20260507004550 69 0 0.0 4.0 0.00 0.00 0.00 80 1012.5
20260507003050 70 0 0.0 2.0 0.00 0.00 0.00 79 1012.4
20260507001601 70 229 0.0 3.0 0.00 0.00 0.00 76 1012.5
20260507000056 70 214 0.0 5.0 0.00 0.00 0.00 75 1012.3
20260506234607 71 0 0.0 3.0 0.00 0.00 0.00 74 1012.2
20260506233051 71 213 0.0 3.0 0.00 0.00 0.00 74 1012.2
20260506231553 71 0 0.0 8.0 0.00 0.00 0.00 73 1012.2
20260506230103 71 0 0.0 9.0 0.00 0.00 0.00 73 1012.6
20260506224552 71 219 0.0 10.0 0.00 0.00 0.00 72 1012.6
20260506223049 71 0 0.0 8.0 0.00 0.00 0.00 72 1012.9
20260506221555 71 211 1.0 10.0 0.00 0.00 0.00 71 1012.9
20260506220051 71 194 4.0 15.0 0.00 0.00 0.00 71 1012.7
20260506214551 72 198 1.0 9.0 0.00 0.00 0.00 70 1012.6
20260506213055 72 205 1.0 9.0 0.00 0.00 0.00 71 1012.0
20260506211552 71 188 2.0 10.0 0.00 0.00 0.00 71 1012.0
20260506210051 71 171 2.0 11.0 0.00 0.00 0.00 71 1012.4
20260506204551 72 219 1.0 7.0 0.00 0.00 0.00 70 1012.5
20260506203043 71 231 2.0 17.0 0.00 0.00 0.00 72 1012.8
20260506201542 70 263 3.0 14.0 0.00 0.00 0.00 73 1012.8
20260506200042 70 229 3.0 14.0 0.00 0.00 0.00 74 1012.4
20260506194549 70 227 2.0 15.0 0.00 0.00 0.00 72 1012.5
20260506193055 68 217 5.0 12.0 0.00 0.00 0.00 74 1012.6
20260506191559 67 112 2.0 12.0 0.00 0.00 0.00 76 1012.7
20260506190043 68 228 2.0 12.0 0.00 0.00 0.00 75 1013.2
20260506184551 68 225 4.0 9.0 0.00 0.00 0.00 77 1013.1
20260506183100 67 0 2.0 8.0 0.00 0.00 0.00 78 1012.6
20260506181602 67 186 2.0 9.0 0.00 0.00 0.00 77 1013.7
20260506180049 67 221 2.0 8.0 0.00 0.00 0.00 75 1014.3
20260506174548 68 0 1.0 10.0 0.00 0.00 0.00 73 1014.9
20260506173110 69 0 3.0 11.0 0.00 0.00 0.00 68 1015.2